VE41 weather

Giridih Airport
Bihar, India

Public forecast

Using degrees Celsius for public forecast. Weather courtesy of forecast.io.

METAR (pilot weather report)

Closest report is Birsa Munda Airport, 75.3 nm (139.5 km) SW. Retrieved 2018/12/18 17:00 UTC (4 minutes ago):

VERC 181700Z 00000KT 1800 BR SCT015 13/11 Q1019 NOSIG

TAF (pilot weather forecast)

Forecast is more than 12 hours old.

Closest forecast is Birsa Munda Airport, 75.3 nm (139.5 km) SW. Retrieved 2013/07/19 09:00 UTC (5 years ago):

TAF VERC 190600Z 1909/1918 11010KT 4500 HZ/-TSRASCT015 FEW030CB BKN090 BECMG 1912/1914 4000 HZ/-TSRA SCT015 FEW030CB BKN090 1916/1918 3000 HZ/-RA SCT015 BKN0980 TEMPO 1912/1916 12010KT 1500/-TSRA SCT015 FEW025CB BKN090